This is the latest recevied weather packets stored in our database for station/object N3TJJ-11. If no packets are shown the sender has not sent any weather packets the latest 10 day(s).
| Time | Temp. | Humidity | Pressure | Rain* | Wind** | Luminosity | Snow |
|---|---|---|---|---|---|---|---|
| 1777587114 | 12.22° C | 69% | 1008.1 hPa | 0 mm | - | - | - |
| 1777586639 | 12.78° C | 71% | 1007.9 hPa | 0 mm | - | - | - |
| 1777586394 | 12.78° C | 70% | 1007.8 hPa | 0 mm | - | - | - |
| 1777586035 | 12.78° C | 73% | 1007.6 hPa | 0 mm | - | - | - |
| 1777585674 | 12.78° C | 72% | 1007.5 hPa | 0 mm | - | - | - |
| 1777585435 | 12.78° C | 71% | 1007.4 hPa | 0 mm | - | - | - |
| 1777584954 | 13.33° C | 66% | 1007.2 hPa | 0 mm | - | - | - |
| 1777584835 | 13.89° C | 66% | 1007.2 hPa | 0 mm | - | - | - |
| 1777584234 | 13.89° C | 66% | 1007 hPa | 0 mm | - | - | - |
| 1777583636 | 13.89° C | 66% | 1006.8 hPa | 0 mm | - | - | - |
| 1777583514 | 13.89° C | 67% | 1006.8 hPa | 0 mm | - | - | - |
| 1777583039 | 14.44° C | 65% | 1006.8 hPa | 0 mm | - | - | - |
| 1777582794 | 14.44° C | 61% | 1006.8 hPa | 0 mm | - | - | - |
| 1777582438 | 15° C | 60% | 1006.6 hPa | 0 mm | - | - | - |
| 1777582074 | 14.44° C | 59% | 1006.5 hPa | 0 mm | - | - | - |
| 1777581835 | 14.44° C | 58% | 1006.4 hPa | 0 mm | - | - | - |
| 1777581354 | 15° C | 60% | 1006.2 hPa | 0 mm | - | - | - |
| 1777581270 | 15° C | 58% | 1006.2 hPa | 0 mm | - | - | - |
| 1777581238 | 15° C | 58% | 1006.2 hPa | 0 mm | - | - | - |
| 1777580634 | 15.56° C | 58% | 1006.2 hPa | 0 mm | - | - | - |
| 1777580037 | 15.56° C | 56% | 1006.1 hPa | 0 mm | - | - | - |
| 1777579914 | 15.56° C | 56% | 1006.1 hPa | 0 mm | - | - | - |
| 1777579435 | 15.56° C | 59% | 1006.1 hPa | 0 mm | - | - | - |
| 1777579194 | 15° C | 58% | 1006.1 hPa | 0 mm | - | - | - |
| 1777578837 | 15.56° C | 58% | 1006.1 hPa | 0 mm | - | - | - |
* Rain latest hour (hover to see other rain measurements)
** Current wind speed in m/s (hover to see current wind gust speed)